TimeEST,TemperatureF,Dew PointF,Humidity,Sea Level PressureIn,VisibilityMPH,Wind Direction,Wind SpeedMPH,Gust SpeedMPH,PrecipitationIn,Events,Conditions,WindDirDegrees,DateUTC
12:53 AM,64.9,62.1,90,30.24,10.0,ENE,4.6,-,0.00,,Partly Cloudy,70,2012-11-12 05:53:00
1:53 AM,63.0,61.0,93,30.22,10.0,Calm,Calm,-,N/A,,Partly Cloudy,0,2012-11-12 06:53:00
2:53 AM,64.0,62.1,93,30.22,10.0,Calm,Calm,-,N/A,,Scattered Clouds,0,2012-11-12 07:53:00
3:53 AM,63.0,62.1,97,30.22,10.0,Calm,Calm,-,N/A,,Mostly Cloudy,0,2012-11-12 08:53:00
4:53 AM,64.0,62.1,93,30.21,10.0,ENE,5.8,-,N/A,,Scattered Clouds,70,2012-11-12 09:53:00
5:53 AM,63.0,62.1,97,30.22,10.0,ENE,3.5,-,N/A,,Partly Cloudy,70,2012-11-12 10:53:00
6:53 AM,62.1,61.0,96,30.23,8.0,Variable,4.6,-,N/A,Fog,Shallow Fog,0,2012-11-12 11:53:00
7:53 AM,66.9,64.9,93,30.25,10.0,ENE,4.6,-,N/A,,Mostly Cloudy,60,2012-11-12 12:53:00
8:53 AM,68.0,64.9,90,30.26,10.0,ESE,6.9,-,N/A,,Mostly Cloudy,120,2012-11-12 13:53:00
9:53 AM,77.0,64.9,66,30.27,10.0,East,6.9,-,0.00,,Mostly Cloudy,90,2012-11-12 14:53:00
10:53 AM,80.1,64.9,60,30.26,10.0,ESE,15.0,20.7,N/A,,Mostly Cloudy,110,2012-11-12 15:53:00
11:53 AM,80.1,64.9,60,30.24,10.0,East,13.8,-,N/A,,Mostly Cloudy,100,2012-11-12 16:53:00
12:53 PM,78.1,64.9,64,30.22,10.0,ESE,13.8,-,N/A,,Mostly Cloudy,120,2012-11-12 17:53:00
1:53 PM,79.0,62.1,56,30.20,10.0,East,11.5,-,N/A,,Mostly Cloudy,80,2012-11-12 18:53:00
2:53 PM,80.1,64.0,58,30.18,10.0,East,10.4,-,N/A,,Mostly Cloudy,90,2012-11-12 19:53:00
3:53 PM,78.1,64.9,64,30.18,10.0,East,13.8,-,N/A,,Mostly Cloudy,80,2012-11-12 20:53:00
4:53 PM,75.0,63.0,66,30.18,10.0,East,8.1,-,N/A,,Mostly Cloudy,90,2012-11-12 21:53:00
5:53 PM,70.0,63.0,78,30.19,10.0,East,5.8,-,N/A,,Mostly Cloudy,100,2012-11-12 22:53:00
6:53 PM,69.1,63.0,81,30.19,10.0,East,5.8,-,N/A,,Mostly Cloudy,80,2012-11-12 23:53:00
7:53 PM,69.1,63.0,81,30.20,10.0,East,3.5,-,N/A,,Mostly Cloudy,80,2012-11-13 00:53:00
8:53 PM,68.0,63.0,84,30.20,10.0,Calm,Calm,-,N/A,,Mostly Cloudy,0,2012-11-13 01:53:00
9:53 PM,66.0,62.1,87,30.20,10.0,Calm,Calm,-,N/A,,Partly Cloudy,0,2012-11-13 02:53:00
10:53 PM,64.9,62.1,90,30.20,10.0,East,3.5,-,N/A,,Partly Cloudy,90,2012-11-13 03:53:00
11:53 PM,64.9,63.0,93,30.19,10.0,NNE,3.5,-,N/A,,Partly Cloudy,20,2012-11-13 04:53:00